Angel Fire, NM

6:54 AM MDT on September 24, 2017 (GMT -0600)
Angel Fire

Weather History for KAXX - November, 2013

Change the Weather History Date:

Wednesday, November 6, 2013

  Actual Average (KSKX) Record (KSKX)
Temperature  
Mean Temperature 22 °F -  
Max Temperature 37 °F 51 °F 69 °F (1999)
Min Temperature 7 °F 22 °F 6 °F (2008)
Degree Days  
Heating Degree Days 43    
Moisture  
Dew Point 14 °F    
Average Humidity 70    
Maximum Humidity 92    
Minimum Humidity 36    
Precipitation  
Precipitation 0.00 in - - ()
Sea Level Pressure  
Sea Level Pressure 30.36 in    
Wind  
Wind Speed 4 mph (WSW)    
Max Wind Speed 21 mph    
Max Gust Speed 26 mph    
Visibility 10 miles    
Events      
Averages and records for this station are not official NWS values.
T = Trace of Precipitation, MM = Missing Value Source: NWS Daily Summary

Daily Weather History Graph

Daily Weather History Graph

Search for Another Location

Airport or City:

Trip Planner

Search our weather history database for the weather conditions in past years. The results will help you decide how hot, cold, wet, or windy it might be!

Date:

Astronomy

Nov. 06, 2013 Rise Set
Actual Time 6:29 AM MST 4:59 PM MST
Civil Twilight 6:02 AM MST 5:26 PM MST
Nautical Twilight 5:31 AM MST 5:57 PM MST
Astronomical Twilight 5:01 AM MST 6:27 PM MST
Moon 9:44 AM MST (11/6) 8:08 PM MST (11/6)
Length of Visible Light 11h 23m
Length of Day
10h 29m
Waxing Crescent, 14% of the Moon is Illuminated
Nov 6
Waxing Crescent
Nov 9
First Quarter
Nov 17
Full
Nov 25
Last Quarter
Dec 2
New

Hourly Weather History & Observations

Time (MST) Temp. Windchill Dew Point Humidity Pressure Visibility Wind Dir Wind Speed Gust Speed Precip Events Conditions
12:15 AM 16.9 °F - 14.2 °F 89% 30.23 in 10.0 mi Calm Calm - N/A   Clear
12:35 AM 15.1 °F - 12.6 °F 90% 30.24 in 10.0 mi Calm Calm - N/A   Clear
12:55 AM 15.8 °F - 13.5 °F 90% 30.25 in 10.0 mi Calm Calm - N/A   Clear
1:15 AM 13.5 °F - 11.3 °F 91% 30.24 in 10.0 mi Calm Calm - N/A   Clear
1:35 AM 14.5 °F 8.8 °F 12.2 °F 90% 30.24 in 10.0 mi South 3.5 mph - N/A   Clear
1:55 AM 13.5 °F - 10.8 °F 89% 30.25 in 10.0 mi Calm Calm - N/A   Clear
2:15 AM 14.9 °F - 12.2 °F 89% 30.25 in 10.0 mi Calm Calm - N/A   Clear
2:35 AM 14.9 °F - 12.9 °F 92% 30.27 in 10.0 mi Calm Calm - N/A   Clear
2:55 AM 12.2 °F - 9.9 °F 90% 30.27 in 10.0 mi Calm Calm - N/A   Clear
3:15 AM 11.8 °F - 9.3 °F 90% 30.27 in 10.0 mi Calm Calm - N/A   Clear
3:35 AM 10.9 °F - 8.2 °F 89% 30.28 in 10.0 mi Calm Calm - N/A   Clear
3:55 AM 11.5 °F - 9.0 °F 90% 30.28 in 10.0 mi Calm Calm - N/A   Clear
4:15 AM 12.2 °F - 9.5 °F 89% 30.29 in 10.0 mi Calm Calm - N/A   Clear
4:35 AM 12.6 °F - 9.9 °F 89% 30.29 in 10.0 mi Calm Calm - N/A   Clear
4:55 AM 11.8 °F - 9.0 °F 88% 30.30 in 10.0 mi Calm Calm - N/A   Clear
5:15 AM 9.9 °F - 7.2 °F 89% 30.30 in 10.0 mi Calm Calm - N/A   Clear
5:35 AM 10.4 °F - 7.7 °F 89% 30.31 in 10.0 mi Calm Calm - N/A   Clear
5:55 AM 9.1 °F - 6.3 °F 88% 30.31 in 10.0 mi Calm Calm - N/A   Clear
6:15 AM 8.1 °F - 5.0 °F 87% 30.32 in 10.0 mi Calm Calm - N/A   Clear
6:35 AM 7.5 °F - 4.6 °F 88% 30.33 in 10.0 mi Calm Calm - N/A   Clear
6:55 AM 9.1 °F - 6.6 °F 89% 30.33 in 10.0 mi Calm Calm - N/A   Clear
7:15 AM 12.0 °F - 9.0 °F 88% 30.34 in 10.0 mi Calm Calm - N/A   Clear
7:35 AM 12.4 °F - 9.5 °F 88% 30.34 in 10.0 mi Calm Calm - N/A   Clear
7:55 AM 17.6 °F 12.3 °F 12.2 °F 79% 30.35 in 10.0 mi WSW 3.5 mph - N/A   Clear
8:15 AM 23.0 °F - 12.0 °F 63% 30.36 in 10.0 mi Calm Calm - N/A   Clear
8:35 AM 20.1 °F - 15.4 °F 82% 30.36 in 10.0 mi Calm Calm - N/A   Clear
8:55 AM 27.0 °F 23.0 °F 12.0 °F 53% 30.36 in 10.0 mi South 3.5 mph - N/A   Clear
9:15 AM 29.1 °F - 10.8 °F 46% 30.36 in 10.0 mi Calm Calm - N/A   Clear
9:35 AM 30.2 °F - 12.7 °F 48% 30.36 in 10.0 mi Calm Calm - N/A   Clear
9:55 AM 31.3 °F 24.7 °F 14.4 °F 50% 30.36 in 10.0 mi WSW 6.9 mph - N/A   Clear
10:15 AM 32.0 °F 27.5 °F 16.0 °F 52% 30.36 in 10.0 mi South 4.6 mph - N/A   Clear
10:35 AM 33.6 °F 25.6 °F 16.3 °F 49% 30.36 in 10.0 mi SW 10.4 mph - N/A   Clear
10:55 AM 32.9 °F 22.8 °F 17.2 °F 53% 30.35 in 10.0 mi WSW 15.0 mph 21.9 mph N/A   Clear
11:15 AM 34.0 °F 22.7 °F 12.0 °F 40% 30.35 in 10.0 mi WSW 19.6 mph - N/A   Clear
11:35 AM 34.5 °F 23.1 °F 11.7 °F 39% 30.35 in 10.0 mi WSW 20.7 mph - N/A   Clear
11:55 AM 34.7 °F 24.3 °F 11.7 °F 39% 30.35 in 10.0 mi West 17.3 mph 21.9 mph N/A   Clear
12:15 PM 34.9 °F 24.2 °F 10.9 °F 37% 30.34 in 10.0 mi WSW 18.4 mph 23.0 mph N/A   Clear
12:35 PM 35.1 °F 23.8 °F 10.6 °F 36% 30.33 in 10.0 mi WSW 20.7 mph - N/A   Clear
12:55 PM 35.8 °F 26.1 °F 13.5 °F 40% 30.34 in 10.0 mi WSW 16.1 mph 21.9 mph N/A   Clear
1:15 PM 36.0 °F 26.7 °F 14.2 °F 41% 30.34 in 10.0 mi WSW 15.0 mph - N/A   Clear
1:35 PM 36.7 °F 27.6 °F 16.2 °F 43% 30.34 in 10.0 mi West 15.0 mph - N/A   Clear
1:55 PM 36.9 °F 26.8 °F 16.7 °F 44% 30.34 in 10.0 mi WSW 18.4 mph 23.0 mph N/A   Clear
2:15 PM 36.9 °F 26.2 °F 16.5 °F 44% 30.35 in 10.0 mi West 20.7 mph 26.5 mph N/A   Clear
2:35 PM 37.0 °F 26.7 °F 18.5 °F 47% 30.36 in 10.0 mi West 19.6 mph - N/A   Clear
2:55 PM 36.9 °F 26.5 °F 17.6 °F 46% 30.36 in 10.0 mi West 19.6 mph - N/A   Clear
3:15 PM 36.7 °F 28.0 °F 19.4 °F 50% 30.36 in 10.0 mi West 13.8 mph 19.6 mph N/A   Clear
3:35 PM 36.5 °F 27.4 °F 19.4 °F 50% 30.35 in 10.0 mi West 15.0 mph 18.4 mph N/A   Clear
3:55 PM 36.0 °F 28.0 °F 19.2 °F 51% 30.37 in 10.0 mi WSW 11.5 mph 24.2 mph N/A   Clear
4:15 PM 35.4 °F 29.0 °F 19.8 °F 53% 30.37 in 10.0 mi WSW 8.1 mph 17.3 mph N/A   Clear
4:35 PM 34.3 °F 27.7 °F 19.2 °F 54% 30.37 in 10.0 mi West 8.1 mph - N/A   Clear
4:55 PM 32.7 °F 28.3 °F 19.0 °F 57% 30.38 in 10.0 mi SSW 4.6 mph - N/A   Clear
5:15 PM 32.4 °F 26.9 °F 19.0 °F 58% 30.39 in 10.0 mi SSE 5.8 mph - N/A   Clear
5:35 PM 33.4 °F 30.4 °F 18.3 °F 54% 30.40 in 10.0 mi South 3.5 mph - N/A   Clear
5:55 PM 31.8 °F 28.5 °F 19.0 °F 59% 30.41 in 10.0 mi SW 3.5 mph - N/A   Clear
6:15 PM 32.0 °F 26.4 °F 19.0 °F 59% 30.41 in 10.0 mi WSW 5.8 mph - N/A   Clear
6:35 PM 32.0 °F - 19.4 °F 60% 30.41 in 10.0 mi Calm Calm - N/A   Clear
6:55 PM 31.3 °F 25.6 °F 19.2 °F 61% 30.42 in 10.0 mi SSW 5.8 mph - N/A   Clear
7:15 PM 30.7 °F 22.6 °F 19.4 °F 63% 30.43 in 10.0 mi SW 9.2 mph - N/A   Clear
7:35 PM 32.0 °F 26.4 °F 19.0 °F 59% 30.43 in 10.0 mi West 5.8 mph - N/A   Clear
7:55 PM 30.0 °F - 19.2 °F 64% 30.45 in 10.0 mi Calm Calm - N/A   Clear
8:15 PM 27.1 °F - 19.2 °F 72% 30.45 in 10.0 mi Calm Calm - N/A   Clear
8:35 PM 25.3 °F 17.6 °F 19.6 °F 79% 30.46 in 10.0 mi North 6.9 mph - N/A   Clear
8:55 PM 23.9 °F 18.0 °F 19.6 °F 84% 30.47 in 10.0 mi NNE 4.6 mph - N/A   Clear
9:15 PM 23.0 °F 18.4 °F 19.2 °F 85% 30.49 in 10.0 mi North 3.5 mph - N/A   Clear
9:35 PM 22.6 °F - 19.0 °F 86% 30.49 in 10.0 mi Calm Calm - N/A   Clear
9:55 PM 21.2 °F - 17.8 °F 87% 30.50 in 10.0 mi Calm Calm - N/A   Clear
10:15 PM 18.9 °F - 16.3 °F 90% 30.49 in 10.0 mi Calm Calm - N/A   Clear
10:35 PM 17.8 °F - 14.9 °F 88% 30.49 in 10.0 mi Calm Calm - N/A   Clear
10:55 PM 18.9 °F - 16.7 °F 91% 30.49 in 10.0 mi Calm Calm - N/A   Clear
11:15 PM 18.3 °F - 16.0 °F 91% 30.49 in 10.0 mi Calm Calm - N/A   Clear
11:35 PM 18.3 °F - 16.2 °F 91% 30.49 in 10.0 mi Calm Calm - N/A   Clear
11:55 PM 17.1 °F - 14.9 °F 91% 30.49 in 10.0 mi Calm Calm - N/A   Clear